Time,TemperatureF,DewpointF,PressureIn,WindDirection,WindDirectionDegrees,WindSpeedMPH,WindSpeedGustMPH,Humidity,HourlyPrecipIn,Conditions,Clouds,dailyrainin,SoftwareType,DateUTC
2013-09-25 00:01:00,61.5,61.0,30.04,East,100,0.0,0.0,98,0.00,,,0.00,meteohub,2013-09-25 04:01:00,
2013-09-25 00:06:00,61.5,61.0,30.03,East,101,0.0,1.0,98,0.00,,,0.00,meteohub,2013-09-25 04:06:00,
2013-09-25 00:11:00,61.5,61.0,30.04,East,101,0.0,1.0,98,0.00,,,0.00,meteohub,2013-09-25 04:11:00,
2013-09-25 00:16:00,61.5,61.0,30.03,East,101,0.0,1.0,98,0.00,,,0.00,meteohub,2013-09-25 04:16:00,
2013-09-25 00:22:00,61.5,61.0,30.03,East,101,0.0,0.0,98,0.00,,,0.00,meteohub,2013-09-25 04:22:00,
2013-09-25 00:27:00,61.5,61.0,30.03,East,101,0.0,0.0,98,0.00,,,0.00,meteohub,2013-09-25 04:27:00,
2013-09-25 00:32:00,61.5,61.0,30.03,East,101,0.0,0.0,98,0.00,,,0.00,meteohub,2013-09-25 04:32:00,
2013-09-25 00:37:00,61.5,61.0,30.03,East,100,0.0,0.0,98,0.00,,,0.00,meteohub,2013-09-25 04:37:00,
2013-09-25 00:42:00,61.5,61.0,30.03,East,101,0.0,0.0,98,0.00,,,0.00,meteohub,2013-09-25 04:42:00,
2013-09-25 00:47:00,61.5,61.0,30.02,East,101,0.0,0.0,98,0.00,,,0.00,meteohub,2013-09-25 04:47:00,
2013-09-25 00:52:00,61.3,60.8,30.02,East,101,0.0,0.0,98,0.00,,,0.00,meteohub,2013-09-25 04:52:00,
2013-09-25 00:57:00,61.3,60.8,30.02,East,101,0.0,0.0,98,0.00,,,0.00,meteohub,2013-09-25 04:57:00,
2013-09-25 01:02:00,61.3,60.8,30.02,East,101,0.0,0.0,98,0.00,,,0.00,meteohub,2013-09-25 05:02:00,
2013-09-25 01:07:00,61.3,60.8,30.01,East,101,0.0,0.0,98,0.00,,,0.00,meteohub,2013-09-25 05:07:00,
2013-09-25 01:12:00,61.5,61.0,30.02,East,101,0.0,0.0,98,0.00,,,0.00,meteohub,2013-09-25 05:12:00,
2013-09-25 01:17:00,61.5,61.0,30.01,East,101,0.0,0.0,98,0.00,,,0.00,meteohub,2013-09-25 05:17:00,
2013-09-25 01:22:00,61.5,61.0,30.01,East,101,0.0,0.0,98,0.00,,,0.00,meteohub,2013-09-25 05:22:00,
2013-09-25 01:27:00,61.5,61.0,30.01,East,101,0.0,0.0,98,0.00,,,0.00,meteohub,2013-09-25 05:27:00,
2013-09-25 01:32:00,61.5,61.0,30.01,East,101,0.0,0.0,98,0.00,,,0.00,meteohub,2013-09-25 05:32:00,
2013-09-25 01:37:00,61.5,61.0,30.01,East,101,0.0,0.0,98,0.00,,,0.00,meteohub,2013-09-25 05:37:00,
2013-09-25 01:42:00,61.3,60.8,30.01,East,101,0.0,0.0,98,0.00,,,0.00,meteohub,2013-09-25 05:42:00,
2013-09-25 01:47:00,61.3,60.8,30.01,East,101,0.0,0.0,98,0.00,,,0.00,meteohub,2013-09-25 05:47:00,
2013-09-25 01:52:00,61.3,60.8,30.01,East,100,0.0,0.0,98,0.00,,,0.00,meteohub,2013-09-25 05:52:00,
2013-09-25 01:57:00,61.3,60.8,30.01,East,100,0.0,0.0,98,0.00,,,0.00,meteohub,2013-09-25 05:57:00,
2013-09-25 02:02:00,61.3,60.8,30.01,East,100,0.0,0.0,98,0.00,,,0.00,meteohub,2013-09-25 06:02:00,
2013-09-25 02:07:00,61.3,60.8,30.01,East,101,0.0,0.0,98,0.00,,,0.00,meteohub,2013-09-25 06:07:00,
2013-09-25 02:12:00,61.3,60.8,30.01,East,101,0.0,0.0,98,0.00,,,0.00,meteohub,2013-09-25 06:12:00,
2013-09-25 02:17:00,61.3,60.8,30.01,East,101,0.0,0.0,98,0.00,,,0.00,meteohub,2013-09-25 06:17:00,
2013-09-25 02:22:00,61.3,60.8,30.01,East,100,0.0,0.0,98,0.00,,,0.00,meteohub,2013-09-25 06:22:00,
2013-09-25 02:27:00,61.3,60.8,30.01,East,101,0.0,0.0,98,0.00,,,0.00,meteohub,2013-09-25 06:27:00,
2013-09-25 02:32:00,61.3,60.8,30.01,East,101,0.0,0.0,98,0.00,,,0.00,meteohub,2013-09-25 06:32:00,
2013-09-25 02:37:00,61.3,60.8,30.00,East,101,0.0,0.0,98,0.00,,,0.00,meteohub,2013-09-25 06:37:00,
2013-09-25 02:42:00,61.3,60.8,30.00,East,100,0.0,0.0,98,0.00,,,0.00,meteohub,2013-09-25 06:42:00,
2013-09-25 02:47:00,61.3,60.8,30.00,East,101,0.0,0.0,98,0.00,,,0.00,meteohub,2013-09-25 06:47:00,
2013-09-25 02:52:00,61.3,60.8,30.00,East,101,0.0,0.0,98,0.00,,,0.00,meteohub,2013-09-25 06:52:00,
2013-09-25 02:57:00,61.2,60.6,30.00,East,101,0.0,0.0,98,0.00,,,0.00,meteohub,2013-09-25 06:57:00,
2013-09-25 03:02:00,61.2,60.6,30.00,East,101,0.0,0.0,98,0.00,,,0.00,meteohub,2013-09-25 07:02:00,
2013-09-25 03:07:00,61.2,60.6,30.00,East,101,0.0,0.0,98,0.00,,,0.00,meteohub,2013-09-25 07:07:00,
2013-09-25 03:12:00,61.2,60.6,30.00,East,101,0.0,0.0,98,0.00,,,0.00,meteohub,2013-09-25 07:12:00,
2013-09-25 03:17:00,61.2,60.6,29.99,East,101,0.0,0.0,98,0.00,,,0.00,meteohub,2013-09-25 07:17:00,
2013-09-25 03:22:00,61.2,60.8,29.99,East,101,0.0,0.0,99,0.00,,,0.00,meteohub,2013-09-25 07:22:00,
2013-09-25 03:27:00,61.2,60.8,29.99,East,100,0.0,0.0,99,0.00,,,0.00,meteohub,2013-09-25 07:27:00,
2013-09-25 03:32:00,61.2,60.8,29.99,East,101,0.0,0.0,99,0.00,,,0.00,meteohub,2013-09-25 07:32:00,
2013-09-25 03:37:00,61.3,61.0,29.99,East,98,0.0,0.0,99,0.00,,,0.00,meteohub,2013-09-25 07:37:00,
2013-09-25 03:42:00,61.2,60.6,29.99,East,99,1.0,0.0,98,0.00,,,0.00,meteohub,2013-09-25 07:42:00,
2013-09-25 03:47:00,61.2,60.8,29.98,East,98,0.0,1.0,99,0.00,,,0.00,meteohub,2013-09-25 07:47:00,
2013-09-25 03:52:00,61.2,60.8,29.98,East,100,0.0,1.0,99,0.00,,,0.00,meteohub,2013-09-25 07:52:00,
2013-09-25 03:57:00,61.2,60.8,29.98,East,100,0.0,1.0,99,0.00,,,0.00,meteohub,2013-09-25 07:57:00,
2013-09-25 04:02:00,61.2,60.8,29.97,East,101,1.0,1.0,99,0.00,,,0.00,meteohub,2013-09-25 08:02:00,
2013-09-25 04:07:00,61.0,60.4,29.97,East,79,1.0,2.0,98,0.00,,,0.00,meteohub,2013-09-25 08:07:00,
2013-09-25 04:12:00,61.0,60.4,29.97,ENE,77,1.0,2.0,98,0.00,,,0.00,meteohub,2013-09-25 08:12:00,
2013-09-25 04:17:00,61.0,60.4,29.97,ENE,76,2.0,2.0,98,0.00,,,0.00,meteohub,2013-09-25 08:17:00,
2013-09-25 04:22:00,60.6,60.1,29.97,ENE,68,0.0,3.0,98,0.00,,,0.00,meteohub,2013-09-25 08:22:00,
2013-09-25 04:27:00,60.8,60.3,29.97,ENE,66,1.0,3.0,98,0.00,,,0.00,meteohub,2013-09-25 08:27:00,
2013-09-25 04:32:00,60.8,60.3,29.97,ENE,69,1.0,3.0,98,0.00,,,0.00,meteohub,2013-09-25 08:32:00,
2013-09-25 04:37:00,60.8,60.3,29.97,ENE,70,0.0,3.0,98,0.00,,,0.00,meteohub,2013-09-25 08:37:00,
2013-09-25 04:42:00,60.8,60.3,29.97,NE,51,1.0,2.0,98,0.00,,,0.00,meteohub,2013-09-25 08:42:00,
2013-09-25 04:47:00,60.8,60.3,29.97,NE,51,0.0,2.0,98,0.00,,,0.00,meteohub,2013-09-25 08:47:00,
2013-09-25 04:52:00,60.8,60.3,29.97,NE,51,0.0,2.0,98,0.00,,,0.00,meteohub,2013-09-25 08:52:00,
2013-09-25 04:57:00,60.8,60.3,29.97,NE,51,0.0,2.0,98,0.00,,,0.00,meteohub,2013-09-25 08:57:00,
2013-09-25 05:02:00,60.8,60.3,29.97,NE,51,0.0,1.0,98,0.00,,,0.00,meteohub,2013-09-25 09:02:00,
2013-09-25 05:07:00,60.8,60.3,29.97,NE,51,0.0,0.0,98,0.01,,,0.01,meteohub,2013-09-25 09:07:00,
2013-09-25 05:12:00,60.6,60.1,29.97,NE,51,0.0,0.0,98,0.01,,,0.01,meteohub,2013-09-25 09:12:00,
2013-09-25 05:17:00,60.6,60.1,29.97,NE,51,0.0,0.0,98,0.02,,,0.02,meteohub,2013-09-25 09:17:00,
2013-09-25 05:22:00,60.6,60.1,29.97,NE,50,0.0,0.0,98,0.03,,,0.03,meteohub,2013-09-25 09:22:00,
2013-09-25 05:27:00,60.6,60.1,29.97,NE,50,0.0,1.0,98,0.04,,,0.04,meteohub,2013-09-25 09:27:00,
2013-09-25 05:32:00,60.6,60.1,29.97,NE,51,0.0,1.0,98,0.05,,,0.05,meteohub,2013-09-25 09:32:00,
2013-09-25 05:37:00,60.4,59.9,29.97,NE,51,0.0,1.0,98,0.05,,,0.05,meteohub,2013-09-25 09:37:00,
2013-09-25 05:42:00,60.4,59.9,29.98,NE,49,0.0,1.0,98,0.06,,,0.05,meteohub,2013-09-25 09:42:00,
2013-09-25 05:47:00,60.4,59.9,29.98,NE,51,0.0,1.0,98,0.06,,,0.06,meteohub,2013-09-25 09:47:00,
2013-09-25 05:52:00,60.3,59.7,29.98,NE,51,0.0,1.0,98,0.07,,,0.07,meteohub,2013-09-25 09:52:00,
2013-09-25 05:57:00,60.3,59.7,29.98,NE,51,0.0,1.0,98,0.07,,,0.07,meteohub,2013-09-25 09:57:00,
2013-09-25 06:02:00,60.1,59.5,29.98,NE,53,1.0,1.0,98,0.08,,,0.08,meteohub,2013-09-25 10:02:00,
2013-09-25 06:07:00,60.1,59.5,29.97,NE,55,0.0,2.0,98,0.08,,,0.09,meteohub,2013-09-25 10:07:00,
2013-09-25 06:12:00,59.9,59.4,29.97,East,79,1.0,2.0,98,0.07,,,0.09,meteohub,2013-09-25 10:12:00,
2013-09-25 06:17:00,59.7,59.2,29.97,ENE,74,0.0,2.0,98,0.08,,,0.11,meteohub,2013-09-25 10:17:00,
2013-09-25 06:22:00,59.7,59.2,29.97,ENE,74,0.0,2.0,98,0.07,,,0.11,meteohub,2013-09-25 10:22:00,
2013-09-25 06:27:00,59.7,59.2,29.97,East,93,1.0,2.0,98,0.07,,,0.12,meteohub,2013-09-25 10:27:00,
2013-09-25 06:32:00,59.7,59.2,29.97,East,94,0.0,2.0,98,0.09,,,0.14,meteohub,2013-09-25 10:32:00,
2013-09-25 06:37:00,59.7,59.2,29.97,ESE,110,0.0,2.0,98,0.09,,,0.14,meteohub,2013-09-25 10:37:00,
2013-09-25 06:42:00,59.7,59.2,29.97,ESE,109,0.0,2.0,98,0.10,,,0.16,meteohub,2013-09-25 10:42:00,
2013-09-25 06:47:00,59.7,59.2,29.96,ESE,109,0.0,1.0,98,0.13,,,0.19,meteohub,2013-09-25 10:47:00,
2013-09-25 06:52:00,59.7,59.2,29.96,ESE,108,1.0,1.0,98,0.14,,,0.21,meteohub,2013-09-25 10:52:00,
2013-09-25 06:57:00,59.5,59.0,29.97,North,5,2.0,3.0,98,0.16,,,0.24,meteohub,2013-09-25 10:57:00,
2013-09-25 07:02:00,59.5,59.2,29.97,NNE,13,0.0,3.0,99,0.19,,,0.25,meteohub,2013-09-25 11:02:00,
2013-09-25 07:07:00,59.5,59.2,29.97,NE,48,1.0,3.0,99,0.20,,,0.29,meteohub,2013-09-25 11:07:00,
2013-09-25 07:12:00,59.5,59.2,29.97,NE,48,0.0,2.0,99,0.21,,,0.31,meteohub,2013-09-25 11:12:00,
2013-09-25 07:17:00,59.5,59.2,29.98,NE,49,0.0,1.0,99,0.21,,,0.32,meteohub,2013-09-25 11:17:00,
2013-09-25 07:22:00,59.7,59.4,29.97,NE,48,1.0,1.0,99,0.24,,,0.36,meteohub,2013-09-25 11:22:00,
2013-09-25 07:27:00,59.5,59.2,29.97,NE,48,0.0,1.0,99,0.29,,,0.42,meteohub,2013-09-25 11:27:00,
2013-09-25 07:32:00,59.5,59.2,29.97,NE,48,0.0,1.0,99,0.31,,,0.45,meteohub,2013-09-25 11:32:00,
2013-09-25 07:37:00,59.5,59.2,29.98,SW,218,1.0,2.0,99,0.33,,,0.48,meteohub,2013-09-25 11:37:00,
2013-09-25 07:42:00,59.5,59.2,29.99,SW,218,1.0,2.0,99,0.33,,,0.50,meteohub,2013-09-25 11:42:00,
2013-09-25 07:47:00,59.5,59.2,29.99,SSW,204,0.0,3.0,99,0.32,,,0.51,meteohub,2013-09-25 11:47:00,
2013-09-25 07:52:00,59.5,59.2,30.00,SSW,204,0.0,3.0,99,0.34,,,0.56,meteohub,2013-09-25 11:52:00,
2013-09-25 07:57:00,59.5,59.2,30.00,SSW,201,0.0,3.0,99,0.39,,,0.60,meteohub,2013-09-25 11:57:00,
2013-09-25 08:02:00,59.5,59.2,30.00,SSW,201,0.0,1.0,99,0.39,,,0.66,meteohub,2013-09-25 12:02:00,
2013-09-25 08:07:00,59.5,59.2,29.99,East,101,0.0,2.0,99,0.42,,,0.72,meteohub,2013-09-25 12:07:00,
2013-09-25 08:12:00,59.5,59.2,29.99,East,101,0.0,2.0,99,0.43,,,0.74,meteohub,2013-09-25 12:12:00,
2013-09-25 08:17:00,59.5,59.2,29.99,East,98,1.0,2.0,99,0.45,,,0.78,meteohub,2013-09-25 12:17:00,
2013-09-25 08:22:00,59.5,59.2,29.99,East,99,0.0,2.0,99,0.43,,,0.80,meteohub,2013-09-25 12:22:00,
2013-09-25 08:27:00,59.5,59.2,29.99,East,99,0.0,2.0,99,0.40,,,0.83,meteohub,2013-09-25 12:27:00,
2013-09-25 08:32:00,59.5,59.2,29.99,East,98,0.0,2.0,99,0.39,,,0.85,meteohub,2013-09-25 12:32:00,
2013-09-25 08:37:00,59.4,59.0,30.00,SE,129,1.0,2.0,99,0.37,,,0.85,meteohub,2013-09-25 12:37:00,
2013-09-25 08:42:00,59.4,59.0,30.00,SSW,204,1.0,2.0,99,0.38,,,0.88,meteohub,2013-09-25 12:42:00,
2013-09-25 08:47:00,59.4,59.0,30.00,SSW,204,0.0,1.0,99,0.36,,,0.89,meteohub,2013-09-25 12:47:00,
2013-09-25 08:52:00,59.4,59.0,30.00,SSW,205,0.0,1.0,99,0.34,,,0.91,meteohub,2013-09-25 12:52:00,
2013-09-25 08:57:00,59.4,59.0,30.01,SSW,204,0.0,1.0,99,0.34,,,0.97,meteohub,2013-09-25 12:57:00,
2013-09-25 09:02:00,59.4,59.0,30.00,SSW,204,0.0,0.0,99,0.34,,,1.01,meteohub,2013-09-25 13:02:00,
2013-09-25 09:07:00,59.5,59.2,30.00,ESE,116,1.0,0.0,99,0.30,,,1.02,meteohub,2013-09-25 13:07:00,
2013-09-25 09:12:00,59.5,59.2,30.01,ESE,115,0.0,1.0,99,0.28,,,1.04,meteohub,2013-09-25 13:12:00,
2013-09-25 09:17:00,59.5,59.2,30.00,ESE,115,1.0,1.0,99,0.25,,,1.04,meteohub,2013-09-25 13:17:00,
2013-09-25 09:22:00,59.7,59.4,30.00,ESE,116,0.0,1.0,99,0.24,,,1.05,meteohub,2013-09-25 13:22:00,
2013-09-25 09:27:00,59.7,59.4,30.00,ESE,116,0.0,1.0,99,0.22,,,1.05,meteohub,2013-09-25 13:27:00,
2013-09-25 09:32:00,59.7,59.4,30.00,ESE,116,0.0,1.0,99,0.20,,,1.05,meteohub,2013-09-25 13:32:00,
2013-09-25 09:37:00,60.1,59.7,30.00,ESE,116,0.0,1.0,99,0.19,,,1.06,meteohub,2013-09-25 13:37:00,
2013-09-25 09:42:00,60.1,59.7,30.00,ESE,117,0.0,0.0,99,0.18,,,1.06,meteohub,2013-09-25 13:42:00,
2013-09-25 09:47:00,60.1,59.7,30.00,ESE,117,1.0,1.0,99,0.17,,,1.06,meteohub,2013-09-25 13:47:00,
2013-09-25 09:52:00,60.1,59.7,30.00,ESE,121,0.0,1.0,99,0.13,,,1.06,meteohub,2013-09-25 13:52:00,
2013-09-25 09:57:00,60.3,59.9,30.00,ESE,122,0.0,1.0,99,0.08,,,1.06,meteohub,2013-09-25 13:57:00,
2013-09-25 10:02:00,60.6,60.3,30.00,ESE,121,0.0,1.0,99,0.05,,,1.06,meteohub,2013-09-25 14:02:00,
2013-09-25 10:07:00,60.6,60.3,30.00,ESE,121,0.0,1.0,99,0.03,,,1.06,meteohub,2013-09-25 14:07:00,
2013-09-25 10:12:00,60.4,60.1,30.00,ESE,120,0.0,0.0,99,0.02,,,1.06,meteohub,2013-09-25 14:12:00,
2013-09-25 10:17:00,60.4,60.1,30.00,ESE,120,0.0,0.0,99,0.02,,,1.06,meteohub,2013-09-25 14:17:00,
2013-09-25 10:22:00,60.4,60.1,30.00,ESE,120,0.0,0.0,99,0.01,,,1.06,meteohub,2013-09-25 14:22:00,
2013-09-25 10:27:00,60.4,60.1,30.00,ESE,120,0.0,0.0,99,0.02,,,1.07,meteohub,2013-09-25 14:27:00,
2013-09-25 10:32:00,60.4,59.9,30.00,ESE,120,0.0,0.0,98,0.02,,,1.08,meteohub,2013-09-25 14:32:00,
2013-09-25 10:37:00,60.4,59.9,30.00,ESE,120,0.0,0.0,98,0.03,,,1.09,meteohub,2013-09-25 14:37:00,
2013-09-25 10:42:00,60.4,59.9,30.00,ESE,120,0.0,0.0,98,0.04,,,1.10,meteohub,2013-09-25 14:42:00,
2013-09-25 10:47:00,60.6,60.1,30.00,ESE,120,0.0,0.0,98,0.04,,,1.10,meteohub,2013-09-25 14:47:00,
2013-09-25 10:52:00,60.6,60.1,30.00,ESE,121,0.0,0.0,98,0.05,,,1.11,meteohub,2013-09-25 14:52:00,
2013-09-25 10:57:00,60.8,60.3,30.00,ESE,120,0.0,0.0,98,0.05,,,1.11,meteohub,2013-09-25 14:57:00,
2013-09-25 11:02:00,61.0,60.4,30.00,ESE,122,0.0,0.0,98,0.06,,,1.12,meteohub,2013-09-25 15:02:00,
2013-09-25 11:07:00,61.0,60.4,30.00,ESE,121,0.0,0.0,98,0.06,,,1.12,meteohub,2013-09-25 15:07:00,
2013-09-25 11:12:00,61.2,60.6,30.00,ESE,120,0.0,0.0,98,0.06,,,1.12,meteohub,2013-09-25 15:12:00,
2013-09-25 11:17:00,61.2,60.6,30.00,ESE,122,0.0,0.0,98,0.06,,,1.12,meteohub,2013-09-25 15:17:00,
2013-09-25 11:22:00,61.3,60.8,30.00,ESE,120,0.0,0.0,98,0.05,,,1.12,meteohub,2013-09-25 15:22:00,
2013-09-25 11:27:00,61.3,60.8,30.00,ESE,120,0.0,0.0,98,0.05,,,1.12,meteohub,2013-09-25 15:27:00,
2013-09-25 11:32:00,61.3,60.4,30.00,ENE,70,0.0,0.0,97,0.04,,,1.12,meteohub,2013-09-25 15:32:00,
2013-09-25 11:38:00,61.3,60.4,30.00,ENE,69,0.0,0.0,97,0.03,,,1.12,meteohub,2013-09-25 15:38:00,
2013-09-25 11:43:00,61.5,60.6,29.99,ENE,69,1.0,0.0,97,0.02,,,1.12,meteohub,2013-09-25 15:43:00,
2013-09-25 11:48:00,61.5,60.6,29.99,NE,41,1.0,1.0,97,0.01,,,1.12,meteohub,2013-09-25 15:48:00,
2013-09-25 11:53:00,61.9,61.0,29.99,NE,39,1.0,2.0,97,0.01,,,1.12,meteohub,2013-09-25 15:53:00,
2013-09-25 11:58:00,61.9,61.0,29.99,East,96,1.0,2.0,97,0.00,,,1.12,meteohub,2013-09-25 15:58:00,
2013-09-25 12:03:00,61.9,61.0,29.99,NNE,33,0.0,2.0,97,0.00,,,1.12,meteohub,2013-09-25 16:03:00,
2013-09-25 12:08:00,62.1,61.0,29.99,NNE,32,0.0,2.0,96,0.00,,,1.12,meteohub,2013-09-25 16:08:00,
2013-09-25 12:13:00,62.1,60.6,29.99,NE,52,3.0,3.0,95,0.00,,,1.12,meteohub,2013-09-25 16:13:00,
2013-09-25 12:18:00,62.1,60.6,29.99,ENE,65,1.0,4.0,95,0.00,,,1.12,meteohub,2013-09-25 16:18:00,
2013-09-25 12:23:00,61.9,60.4,29.99,East,88,0.0,5.0,95,0.00,,,1.12,meteohub,2013-09-25 16:23:00,
2013-09-25 12:28:00,61.5,60.1,29.99,ENE,63,1.0,5.0,95,0.00,,,1.12,meteohub,2013-09-25 16:28:00,
2013-09-25 12:33:00,61.3,59.9,29.99,ENE,73,3.0,5.0,95,0.00,,,1.12,meteohub,2013-09-25 16:33:00,
2013-09-25 12:38:00,61.2,60.1,29.99,SSW,203,2.0,4.0,96,0.00,,,1.12,meteohub,2013-09-25 16:38:00,
2013-09-25 12:43:00,61.3,60.3,29.99,SE,125,0.0,4.0,96,0.00,,,1.12,meteohub,2013-09-25 16:43:00,
2013-09-25 12:48:00,61.3,60.3,29.99,SE,135,0.0,4.0,96,0.00,,,1.12,meteohub,2013-09-25 16:48:00,
2013-09-25 12:53:00,61.2,60.1,29.99,SSW,203,1.0,3.0,96,0.00,,,1.12,meteohub,2013-09-25 16:53:00,
2013-09-25 12:58:00,61.3,60.4,29.99,SE,136,0.0,3.0,97,0.00,,,1.12,meteohub,2013-09-25 16:58:00,
2013-09-25 13:03:00,61.3,60.3,29.99,SSW,207,0.0,2.0,96,0.00,,,1.12,meteohub,2013-09-25 17:03:00,
2013-09-25 13:08:00,61.3,60.3,29.98,ENE,65,2.0,2.0,96,0.00,,,1.12,meteohub,2013-09-25 17:08:00,
2013-09-25 13:13:00,61.2,60.3,29.98,ENE,65,0.0,3.0,97,0.00,,,1.12,meteohub,2013-09-25 17:13:00,
2013-09-25 13:18:00,61.2,60.3,29.98,East,84,0.0,3.0,97,0.00,,,1.12,meteohub,2013-09-25 17:18:00,
2013-09-25 13:23:00,61.3,60.4,29.98,East,84,0.0,3.0,97,0.00,,,1.12,meteohub,2013-09-25 17:23:00,
2013-09-25 13:28:00,61.5,60.6,29.97,West,260,0.0,3.0,97,0.00,,,1.12,meteohub,2013-09-25 17:28:00,
2013-09-25 13:33:00,61.5,60.6,29.97,SSW,205,2.0,3.0,97,0.00,,,1.12,meteohub,2013-09-25 17:33:00,
2013-09-25 13:39:00,61.7,60.8,29.97,SSW,212,0.0,3.0,97,0.00,,,1.12,meteohub,2013-09-25 17:39:00,
2013-09-25 13:44:00,61.7,60.6,29.97,SSW,203,0.0,3.0,96,0.00,,,1.12,meteohub,2013-09-25 17:44:00,
2013-09-25 13:49:00,61.9,60.8,29.97,SSW,207,1.0,2.0,96,0.00,,,1.12,meteohub,2013-09-25 17:49:00,
2013-09-25 13:54:00,62.1,61.0,29.97,SSW,207,3.0,3.0,96,0.00,,,1.12,meteohub,2013-09-25 17:54:00,
2013-09-25 13:59:00,62.1,60.3,29.96,East,84,0.0,2.0,94,0.00,,,1.12,meteohub,2013-09-25 17:59:00,
2013-09-25 14:04:00,62.2,60.4,29.96,SSW,201,2.0,3.0,94,0.00,,,1.12,meteohub,2013-09-25 18:04:00,
2013-09-25 14:09:00,62.2,60.3,29.96,SSE,153,0.0,3.0,93,0.00,,,1.12,meteohub,2013-09-25 18:09:00,
2013-09-25 14:14:00,62.4,60.6,29.96,SSE,148,0.0,3.0,94,0.00,,,1.12,meteohub,2013-09-25 18:14:00,
2013-09-25 14:19:00,62.6,60.6,29.96,SSW,203,0.0,3.0,93,0.00,,,1.12,meteohub,2013-09-25 18:19:00,
2013-09-25 14:24:00,62.4,60.4,29.96,NE,47,0.0,3.0,93,0.00,,,1.12,meteohub,2013-09-25 18:24:00,
2013-09-25 14:29:00,62.2,60.4,29.96,ENE,74,1.0,5.0,94,0.00,,,1.12,meteohub,2013-09-25 18:29:00,
2013-09-25 14:34:00,62.1,60.3,29.95,SSW,194,0.0,5.0,94,0.00,,,1.12,meteohub,2013-09-25 18:34:00,
2013-09-25 14:39:00,62.1,60.3,29.95,ESE,105,0.0,5.0,94,0.00,,,1.12,meteohub,2013-09-25 18:39:00,
2013-09-25 14:44:00,62.2,60.4,29.96,ESE,105,1.0,3.0,94,0.00,,,1.12,meteohub,2013-09-25 18:44:00,
2013-09-25 14:49:00,62.1,60.1,29.95,East,97,0.0,3.0,93,0.00,,,1.12,meteohub,2013-09-25 18:49:00,
2013-09-25 14:54:00,62.2,60.4,29.96,SSE,165,1.0,3.0,94,0.00,,,1.12,meteohub,2013-09-25 18:54:00,
2013-09-25 14:59:00,62.2,60.4,29.96,SW,224,0.0,2.0,94,0.00,,,1.12,meteohub,2013-09-25 18:59:00,
2013-09-25 15:04:00,62.2,60.4,29.96,SW,219,0.0,3.0,94,0.00,,,1.12,meteohub,2013-09-25 19:04:00,
2013-09-25 15:09:00,62.1,60.1,29.96,South,180,2.0,3.0,93,0.00,,,1.12,meteohub,2013-09-25 19:09:00,
2013-09-25 15:14:00,62.1,60.1,29.96,SE,143,1.0,3.0,93,0.00,,,1.12,meteohub,2013-09-25 19:14:00,
2013-09-25 15:19:00,61.9,59.9,29.96,South,173,2.0,3.0,93,0.01,,,1.12,meteohub,2013-09-25 19:19:00,
2013-09-25 15:24:00,61.7,59.9,29.95,East,98,1.0,3.0,94,0.01,,,1.13,meteohub,2013-09-25 19:24:00,
2013-09-25 15:29:00,61.5,60.1,29.96,SSW,212,0.0,4.0,95,0.01,,,1.13,meteohub,2013-09-25 19:29:00,
2013-09-25 15:34:00,61.3,59.9,29.96,SSW,198,0.0,4.0,95,0.01,,,1.13,meteohub,2013-09-25 19:34:00,
2013-09-25 15:39:00,61.2,59.7,29.95,East,94,0.0,3.0,95,0.01,,,1.13,meteohub,2013-09-25 19:39:00,
2013-09-25 15:44:00,61.0,59.5,29.95,SW,221,3.0,3.0,95,0.01,,,1.13,meteohub,2013-09-25 19:44:00,
2013-09-25 15:49:00,60.8,59.4,29.95,SSW,207,3.0,3.0,95,0.01,,,1.13,meteohub,2013-09-25 19:49:00,
2013-09-25 15:54:00,61.0,59.9,29.95,East,97,3.0,4.0,96,0.01,,,1.13,meteohub,2013-09-25 19:54:00,
2013-09-25 15:59:00,60.6,59.5,29.95,East,101,0.0,5.0,96,0.01,,,1.13,meteohub,2013-09-25 19:59:00,
2013-09-25 16:05:00,60.6,59.2,29.96,East,101,1.0,5.0,95,0.01,,,1.13,meteohub,2013-09-25 20:05:00,
2013-09-25 16:10:00,60.6,59.5,29.95,East,101,0.0,4.0,96,0.01,,,1.13,meteohub,2013-09-25 20:10:00,
2013-09-25 16:15:00,60.6,59.5,29.95,East,101,0.0,1.0,96,0.01,,,1.13,meteohub,2013-09-25 20:15:00,
2013-09-25 16:20:00,60.6,59.5,29.95,East,101,0.0,1.0,96,0.00,,,1.13,meteohub,2013-09-25 20:20:00,
2013-09-25 16:25:00,61.0,59.9,29.95,East,101,0.0,1.0,96,0.00,,,1.13,meteohub,2013-09-25 20:25:00,
2013-09-25 16:30:00,61.0,59.9,29.95,SSW,210,0.0,1.0,96,0.00,,,1.13,meteohub,2013-09-25 20:30:00,
2013-09-25 16:35:00,60.8,59.7,29.95,East,91,0.0,2.0,96,0.00,,,1.13,meteohub,2013-09-25 20:35:00,
2013-09-25 16:40:00,60.8,59.4,29.95,NE,56,1.0,2.0,95,0.00,,,1.13,meteohub,2013-09-25 20:40:00,
2013-09-25 16:45:00,60.6,59.2,29.95,NE,41,1.0,3.0,95,0.00,,,1.13,meteohub,2013-09-25 20:45:00,
2013-09-25 16:51:00,60.6,59.2,29.95,ESE,116,3.0,3.0,95,0.00,,,1.13,meteohub,2013-09-25 20:51:00,
2013-09-25 16:56:00,60.6,59.2,29.95,NE,41,0.0,5.0,95,0.00,,,1.13,meteohub,2013-09-25 20:56:00,
2013-09-25 17:01:00,60.4,59.0,29.95,ESE,104,1.0,5.0,95,0.00,,,1.13,meteohub,2013-09-25 21:01:00,
2013-09-25 17:06:00,60.6,59.2,29.95,SSE,158,0.0,5.0,95,0.00,,,1.13,meteohub,2013-09-25 21:06:00,
2013-09-25 17:11:00,60.6,59.2,29.95,East,82,2.0,2.0,95,0.00,,,1.13,meteohub,2013-09-25 21:11:00,
2013-09-25 17:16:00,60.4,59.0,29.96,NE,43,0.0,4.0,95,0.00,,,1.13,meteohub,2013-09-25 21:16:00,
2013-09-25 17:21:00,60.4,59.0,29.96,SSW,198,0.0,4.0,95,0.00,,,1.13,meteohub,2013-09-25 21:21:00,
2013-09-25 17:26:00,60.4,59.0,29.95,ESE,115,0.0,4.0,95,0.00,,,1.13,meteohub,2013-09-25 21:26:00,
2013-09-25 17:31:00,60.3,58.8,29.95,SE,131,0.0,3.0,95,0.00,,,1.13,meteohub,2013-09-25 21:31:00,
2013-09-25 17:36:00,60.3,58.8,29.95,SE,131,1.0,3.0,95,0.00,,,1.13,meteohub,2013-09-25 21:36:00,
2013-09-25 17:41:00,60.1,58.6,29.95,East,91,1.0,3.0,95,0.00,,,1.13,meteohub,2013-09-25 21:41:00,
2013-09-25 17:46:00,59.9,58.5,29.96,NE,37,1.0,3.0,95,0.00,,,1.13,meteohub,2013-09-25 21:46:00,
2013-09-25 17:51:00,59.7,58.6,29.96,NE,39,1.0,5.0,96,0.00,,,1.13,meteohub,2013-09-25 21:51:00,
2013-09-25 17:56:00,59.5,58.5,29.96,NE,37,1.0,5.0,96,0.00,,,1.13,meteohub,2013-09-25 21:56:00,
2013-09-25 18:01:00,59.5,58.5,29.96,NNE,25,1.0,3.0,96,0.00,,,1.13,meteohub,2013-09-25 22:01:00,
2013-09-25 18:06:00,59.5,58.5,29.96,NNE,12,1.0,3.0,96,0.00,,,1.13,meteohub,2013-09-25 22:06:00,
2013-09-25 18:11:00,59.5,58.5,29.96,NNE,29,2.0,3.0,96,0.00,,,1.13,meteohub,2013-09-25 22:11:00,
2013-09-25 18:16:00,59.5,58.5,29.96,NNE,29,0.0,2.0,96,0.00,,,1.13,meteohub,2013-09-25 22:16:00,
2013-09-25 18:21:00,59.5,58.5,29.96,NNE,29,0.0,2.0,96,0.00,,,1.13,meteohub,2013-09-25 22:21:00,
2013-09-25 18:26:00,59.5,58.5,29.96,NNE,29,0.0,2.0,96,0.00,,,1.13,meteohub,2013-09-25 22:26:00,
2013-09-25 18:31:00,59.7,58.6,29.96,NNE,29,0.0,1.0,96,0.00,,,1.13,meteohub,2013-09-25 22:31:00,
2013-09-25 18:36:00,59.7,58.6,29.97,NNE,29,0.0,1.0,96,0.00,,,1.13,meteohub,2013-09-25 22:36:00,
2013-09-25 18:41:00,59.7,58.6,29.97,NNE,29,0.0,1.0,96,0.00,,,1.13,meteohub,2013-09-25 22:41:00,
2013-09-25 18:46:00,59.5,58.5,29.97,NNE,29,0.0,1.0,96,0.00,,,1.13,meteohub,2013-09-25 22:46:00,
2013-09-25 18:51:00,59.7,58.8,29.97,NNE,28,1.0,1.0,97,0.00,,,1.13,meteohub,2013-09-25 22:51:00,
2013-09-25 18:56:00,59.5,58.6,29.97,NNE,29,1.0,1.0,97,0.00,,,1.13,meteohub,2013-09-25 22:56:00,
2013-09-25 19:01:00,59.5,58.6,29.97,NNE,29,0.0,2.0,97,0.00,,,1.13,meteohub,2013-09-25 23:01:00,
2013-09-25 19:06:00,59.5,58.6,29.97,NNE,29,0.0,2.0,97,0.00,,,1.13,meteohub,2013-09-25 23:06:00,
2013-09-25 19:11:00,59.5,58.6,29.97,NNE,29,0.0,1.0,97,0.00,,,1.13,meteohub,2013-09-25 23:11:00,
2013-09-25 19:16:00,59.4,58.5,29.97,NE,46,1.0,0.0,97,0.00,,,1.13,meteohub,2013-09-25 23:16:00,
2013-09-25 19:21:00,59.4,58.5,29.97,SSE,158,2.0,2.0,97,0.00,,,1.13,meteohub,2013-09-25 23:21:00,
2013-09-25 19:26:00,59.2,58.3,29.97,SE,126,1.0,2.0,97,0.00,,,1.13,meteohub,2013-09-25 23:26:00,
2013-09-25 19:31:00,59.2,58.3,29.98,SW,227,1.0,2.0,97,0.00,,,1.13,meteohub,2013-09-25 23:31:00,
2013-09-25 19:36:00,59.0,58.1,29.98,SW,217,0.0,2.0,97,0.00,,,1.13,meteohub,2013-09-25 23:36:00,
2013-09-25 19:41:00,59.2,58.3,29.98,SW,217,0.0,2.0,97,0.00,,,1.13,meteohub,2013-09-25 23:41:00,
2013-09-25 19:47:00,58.8,57.9,29.98,NE,34,2.0,2.0,97,0.00,,,1.13,meteohub,2013-09-25 23:47:00,
2013-09-25 19:52:00,58.8,57.9,29.98,East,89,1.0,3.0,97,0.00,,,1.13,meteohub,2013-09-25 23:52:00,
2013-09-25 19:57:00,58.6,57.7,29.98,East,89,0.0,3.0,97,0.00,,,1.13,meteohub,2013-09-25 23:57:00,
2013-09-25 20:02:00,58.6,57.7,29.98,East,89,0.0,3.0,97,0.00,,,1.13,meteohub,2013-09-26 00:02:00,
2013-09-25 20:07:00,58.6,57.7,29.98,East,89,0.0,2.0,97,0.00,,,0.00,meteohub,2013-09-26 00:07:00,
2013-09-25 20:12:00,58.6,57.7,29.98,East,89,0.0,0.0,97,0.00,,,0.00,meteohub,2013-09-26 00:12:00,
2013-09-25 20:17:00,58.6,57.7,29.99,East,89,0.0,0.0,97,0.00,,,0.00,meteohub,2013-09-26 00:17:00,
2013-09-25 20:22:00,58.6,57.7,29.99,East,89,0.0,0.0,97,0.00,,,0.00,meteohub,2013-09-26 00:22:00,
2013-09-25 20:27:00,58.6,58.1,29.99,East,89,0.0,0.0,98,0.00,,,0.00,meteohub,2013-09-26 00:27:00,
2013-09-25 20:32:00,58.6,57.7,29.99,SSE,160,0.0,2.0,97,0.00,,,0.00,meteohub,2013-09-26 00:32:00,
2013-09-25 20:37:00,58.5,57.6,29.99,SSE,160,0.0,2.0,97,0.00,,,0.00,meteohub,2013-09-26 00:37:00,
2013-09-25 20:42:00,58.6,58.1,29.99,SSE,160,0.0,2.0,98,0.00,,,0.00,meteohub,2013-09-26 00:42:00,
2013-09-25 20:47:00,58.5,57.6,29.99,SSE,162,0.0,1.0,97,0.00,,,0.00,meteohub,2013-09-26 00:47:00,
2013-09-25 20:52:00,58.5,57.9,29.99,SSE,162,0.0,1.0,98,0.01,,,0.01,meteohub,2013-09-26 00:52:00,
2013-09-25 20:57:00,58.5,57.9,29.99,SSE,162,0.0,1.0,98,0.01,,,0.01,meteohub,2013-09-26 00:57:00,
2013-09-25 21:02:00,58.5,57.9,29.99,SSE,162,0.0,0.0,98,0.01,,,0.01,meteohub,2013-09-26 01:02:00,
2013-09-25 21:07:00,58.6,58.1,29.99,SSE,162,0.0,0.0,98,0.01,,,0.01,meteohub,2013-09-26 01:07:00,
2013-09-25 21:12:00,58.6,58.1,29.99,SSE,162,0.0,0.0,98,0.01,,,0.01,meteohub,2013-09-26 01:12:00,
2013-09-25 21:17:00,58.6,58.1,29.99,SSE,160,0.0,1.0,98,0.01,,,0.01,meteohub,2013-09-26 01:17:00,
2013-09-25 21:22:00,58.6,58.1,29.99,SSE,160,0.0,1.0,98,0.01,,,0.01,meteohub,2013-09-26 01:22:00,
2013-09-25 21:27:00,58.6,58.1,29.99,SSE,160,0.0,1.0,98,0.01,,,0.01,meteohub,2013-09-26 01:27:00,
2013-09-25 21:32:00,58.5,57.9,29.99,North,349,0.0,1.0,98,0.01,,,0.01,meteohub,2013-09-26 01:32:00,
2013-09-25 21:37:00,58.5,57.9,29.99,North,349,0.0,2.0,98,0.01,,,0.01,meteohub,2013-09-26 01:37:00,
2013-09-25 21:42:00,58.5,57.9,29.99,NNW,347,1.0,2.0,98,0.01,,,0.01,meteohub,2013-09-26 01:42:00,
2013-09-25 21:47:00,58.3,57.7,29.99,North,4,0.0,2.0,98,0.00,,,0.01,meteohub,2013-09-26 01:47:00,
2013-09-25 21:52:00,58.3,57.7,30.00,North,4,0.0,2.0,98,0.00,,,0.01,meteohub,2013-09-26 01:52:00,
2013-09-25 21:57:00,58.3,57.7,30.00,North,4,0.0,2.0,98,0.00,,,0.01,meteohub,2013-09-26 01:57:00,
2013-09-25 22:02:00,58.3,57.7,30.00,North,4,0.0,1.0,98,0.00,,,0.01,meteohub,2013-09-26 02:02:00,
2013-09-25 22:07:00,58.3,57.7,30.00,North,4,0.0,1.0,98,0.00,,,0.01,meteohub,2013-09-26 02:07:00,
2013-09-25 22:12:00,58.3,57.7,30.00,North,4,0.0,1.0,98,0.00,,,0.01,meteohub,2013-09-26 02:12:00,
2013-09-25 22:17:00,58.3,57.7,30.00,North,4,0.0,1.0,98,0.00,,,0.01,meteohub,2013-09-26 02:17:00,
2013-09-25 22:22:00,58.3,57.7,30.00,North,4,0.0,1.0,98,0.00,,,0.01,meteohub,2013-09-26 02:22:00,
2013-09-25 22:27:00,58.3,57.7,30.00,NNE,30,1.0,1.0,98,0.00,,,0.01,meteohub,2013-09-26 02:27:00,
2013-09-25 22:32:00,58.3,57.7,30.00,NNE,30,0.0,1.0,98,0.00,,,0.01,meteohub,2013-09-26 02:32:00,
2013-09-25 22:37:00,58.3,57.7,30.00,NNE,30,0.0,1.0,98,0.00,,,0.01,meteohub,2013-09-26 02:37:00,
2013-09-25 22:42:00,58.3,57.7,30.00,North,8,0.0,1.0,98,0.00,,,0.01,meteohub,2013-09-26 02:42:00,
2013-09-25 22:47:00,58.3,57.7,30.00,North,8,0.0,2.0,98,0.00,,,0.01,meteohub,2013-09-26 02:47:00,
2013-09-25 22:52:00,58.3,57.7,30.00,North,8,0.0,2.0,98,0.00,,,0.01,meteohub,2013-09-26 02:52:00,
2013-09-25 22:57:00,58.3,57.7,30.00,North,8,0.0,1.0,98,0.00,,,0.01,meteohub,2013-09-26 02:57:00,
2013-09-25 23:02:00,58.1,57.6,30.00,North,7,0.0,0.0,98,0.00,,,0.01,meteohub,2013-09-26 03:02:00,
2013-09-25 23:07:00,58.1,57.6,30.00,North,8,0.0,0.0,98,0.00,,,0.01,meteohub,2013-09-26 03:07:00,
2013-09-25 23:12:00,57.9,57.4,30.00,North,6,0.0,1.0,98,0.00,,,0.01,meteohub,2013-09-26 03:12:00,
2013-09-25 23:17:00,57.9,57.4,30.00,North,8,0.0,1.0,98,0.00,,,0.01,meteohub,2013-09-26 03:17:00,
2013-09-25 23:22:00,57.9,57.4,30.00,North,8,0.0,0.0,98,0.00,,,0.01,meteohub,2013-09-26 03:22:00,
2013-09-25 23:27:00,58.1,57.6,30.00,North,8,0.0,0.0,98,0.00,,,0.01,meteohub,2013-09-26 03:27:00,
2013-09-25 23:32:00,58.1,57.6,30.00,North,8,0.0,0.0,98,0.00,,,0.01,meteohub,2013-09-26 03:32:00,
2013-09-25 23:37:00,58.3,57.7,30.00,North,8,0.0,0.0,98,0.00,,,0.01,meteohub,2013-09-26 03:37:00,
2013-09-25 23:42:00,58.3,57.9,30.00,North,8,0.0,0.0,99,0.00,,,0.01,meteohub,2013-09-26 03:42:00,
2013-09-25 23:47:00,58.3,57.7,30.00,North,8,0.0,0.0,98,0.00,,,0.01,meteohub,2013-09-26 03:47:00,
2013-09-25 23:52:00,58.3,57.7,30.00,North,8,0.0,0.0,98,0.00,,,0.01,meteohub,2013-09-26 03:52:00,
2013-09-25 23:57:00,58.1,57.6,30.00,North,8,0.0,0.0,98,0.00,,,0.01,meteohub,2013-09-26 03:57:00,